Waarnemingen

Advertentie
Mijn weer
St-Hubert, België (6476): temperatuur & dauwpunt: 13.06.2019 01:00:00 - 19.06.2019 01:00:00 (CEST)St-Hubert, België (6476): windsnelheid & windstoten: 13.06.2019 01:00:00 - 19.06.2019 01:00:00 (CEST)St-Hubert, België (6476): windrichting: 13.06.2019 01:00:00 - 19.06.2019 01:00:00 (CEST)St-Hubert, België (6476): luchtdruk: 13.06.2019 01:00:00 - 19.06.2019 01:00:00 (CEST)St-Hubert, België (6476): zicht: 13.06.2019 01:00:00 - 19.06.2019 01:00:00 (CEST)
Datum & Tijd tt [°C] td [°C] ff [km/u] ff [kn] fx [km/u] fx [kn] dd ppp [hPa] vv [km]
19.06.2019 01:00:00 - - - - - - - - -
19.06.2019 00:00:00 16,9 12,1 7 4 14 8 ZZO 1011,8 45
18.06.2019 23:00:00 17,6 12,0 7 4 - - ZO 1012,1 45
18.06.2019 22:00:00 18,1 11,9 4 2 11 6 ZZO 1012,3 45
18.06.2019 21:00:00 20,3 13,2 4 2 14 8 Z 1011,8 45
18.06.2019 20:00:00 21,4 12,4 7 4 - - Z 1011,6 45
18.06.2019 19:00:00 22,3 13,1 7 4 18 10 Z 1011,6 40
18.06.2019 18:00:00 22,5 11,0 7 4 18 10 ZZO 1011,9 35
18.06.2019 17:00:00 22,7 13,8 11 6 - - Z 1012,4 35
18.06.2019 16:00:00 22,7 13,2 7 4 14 8 ZZW 1012,7 40
18.06.2019 15:00:00 23,0 13,4 7 4 14 8 - 1013,1 40
18.06.2019 14:00:00 22,4 10,8 4 2 - - Z 1013,3 40
18.06.2019 13:00:00 21,9 12,5 4 2 18 10 - 1013,8 40
18.06.2019 12:00:00 22,2 12,2 7 4 22 12 OZO 1013,7 35
18.06.2019 11:00:00 21,3 9,5 7 4 - - - 1014,3 35
18.06.2019 10:00:00 20,9 10,6 7 4 11 6 NNO 1014,7 40
18.06.2019 09:00:00 19,1 12,3 4 2 11 6 O 1015,1 40
18.06.2019 08:00:00 19,0 11,9 7 4 - - OZO 1015,3 45
18.06.2019 07:00:00 17,8 11,0 7 4 11 6 OZO 1015,5 45
18.06.2019 06:00:00 14,8 9,8 7 4 14 8 OZO 1016,1 45
18.06.2019 05:00:00 15,2 9,3 11 6 - - OZO 1016,3 45
18.06.2019 04:00:00 15,5 9,8 11 6 14 8 OZO 1016,5 45
18.06.2019 03:00:00 16,1 9,9 11 6 14 8 OZO 1016,9 45
18.06.2019 02:00:00 16,0 9,4 7 4 - - OZO 1017,3 45
18.06.2019 01:00:00 16,6 9,5 11 6 11 6 OZO 1017,4 45
18.06.2019 00:00:00 16,4 10,2 7 4 7 4 ZO 1017,6 45
17.06.2019 23:00:00 16,1 10,0 7 4 - - ZO 1017,5 45
17.06.2019 22:00:00 16,3 11,2 7 4 7 4 OZO 1017,5 45
17.06.2019 21:00:00 19,9 11,1 7 4 14 8 ZO 1016,9 45
17.06.2019 20:00:00 21,7 10,0 7 4 - - ZZO 1016,5 40
17.06.2019 19:00:00 21,2 8,9 4 2 22 12 - 1017,1 40
17.06.2019 18:00:00 21,9 9,7 7 4 18 10 OZO 1016,9 35
17.06.2019 17:00:00 20,9 9,0 11 6 - - ZO 1017,6 35
17.06.2019 16:00:00 22,3 8,6 4 2 25 14 - 1017,6 40
17.06.2019 15:00:00 21,6 9,0 7 4 22 12 - 1018,1 35
17.06.2019 14:00:00 20,9 9,2 7 4 - - - 1018,7 40
17.06.2019 13:00:00 19,8 10,0 7 4 18 10 Z 1019,4 35
17.06.2019 12:00:00 18,7 9,5 4 2 18 10 - 1020,0 40
17.06.2019 11:00:00 18,7 9,2 11 6 - - Z 1020,1 35
17.06.2019 10:00:00 17,3 10,9 14 8 25 14 ZO 1020,6 35
17.06.2019 09:00:00 16,7 10,6 11 6 22 12 ZO 1020,9 35
17.06.2019 08:00:00 15,3 9,7 11 6 - - OZO 1021,0 35
17.06.2019 07:00:00 14,1 9,4 11 6 18 10 OZO 1021,2 45
17.06.2019 06:00:00 12,7 9,3 14 8 22 12 OZO 1021,8 45
17.06.2019 05:00:00 10,9 9,2 11 6 - - O 1022,3 45
17.06.2019 04:00:00 11,3 9,0 7 4 11 6 O 1022,3 45
17.06.2019 03:00:00 10,1 9,0 4 2 7 4 ZO 1023,0 45
17.06.2019 02:00:00 11,5 9,6 4 2 - - OZO 1022,7 45
17.06.2019 01:00:00 11,4 9,1 4 2 4 2 OZO 1022,8 45
17.06.2019 00:00:00 12,1 9,5 0 0 4 2 N 1022,6 45
16.06.2019 23:00:00 12,6 8,8 4 2 - - Z 1022,6 45
16.06.2019 22:00:00 13,3 9,9 4 2 11 6 Z 1022,2 45
16.06.2019 21:00:00 16,0 10,5 7 4 14 8 WZW 1021,4 45
16.06.2019 20:00:00 16,7 9,9 4 2 - - Z 1021,2 45
16.06.2019 19:00:00 17,6 10,4 7 4 18 10 ZW 1021,0 30
16.06.2019 18:00:00 16,6 9,4 11 6 22 12 WZW 1021,2 40
16.06.2019 17:00:00 17,2 9,7 11 6 - - WZW 1021,1 45
16.06.2019 16:00:00 17,2 9,9 11 6 22 12 WZW 1021,2 30
16.06.2019 15:00:00 16,7 10,0 11 6 29 16 WZW 1021,3 35
16.06.2019 14:00:00 15,9 9,9 11 6 - - ZW 1021,3 35
16.06.2019 13:00:00 15,6 9,1 14 8 32 18 ZW 1021,5 40
16.06.2019 12:00:00 14,6 9,7 14 8 29 16 ZZW 1021,4 35
16.06.2019 11:00:00 13,9 9,6 11 6 - - ZW 1021,4 40
16.06.2019 10:00:00 13,1 10,0 11 6 25 14 ZZW 1021,2 30
16.06.2019 09:00:00 12,2 9,4 14 8 29 16 ZW 1021,0 35
16.06.2019 08:00:00 12,3 9,6 11 6 - - ZW 1020,7 45
16.06.2019 07:00:00 11,4 9,2 7 4 14 8 ZW 1020,6 45
16.06.2019 06:00:00 9,9 7,8 7 4 11 6 ZZW 1020,8 45
16.06.2019 05:00:00 11,3 8,4 4 2 - - ZZW 1020,1 45
16.06.2019 04:00:00 11,4 8,8 7 4 7 4 ZZW 1020,0 45
16.06.2019 03:00:00 11,5 8,6 4 2 11 6 ZW 1020,0 45
16.06.2019 02:00:00 10,2 7,7 7 4 - - ZW 1020,2 45
16.06.2019 01:00:00 11,1 8,3 7 4 11 6 ZZW 1019,9 45
16.06.2019 00:00:00 11,4 8,6 7 4 11 6 ZZW 1019,0 45
15.06.2019 23:00:00 12,4 8,5 7 4 - - ZW 1018,1 45
15.06.2019 22:00:00 13,2 9,1 7 4 18 10 ZW 1017,4 45
15.06.2019 21:00:00 15,6 9,6 11 6 22 12 ZW 1016,8 40
15.06.2019 20:00:00 16,0 9,4 11 6 - - ZW 1016,3 40
15.06.2019 19:00:00 17,3 10,2 14 8 29 16 ZW 1015,7 30
15.06.2019 18:00:00 18,1 10,7 14 8 36 19 ZW 1015,6 40
15.06.2019 17:00:00 17,7 9,6 18 10 - - ZW 1015,8 30
15.06.2019 16:00:00 18,3 10,3 14 8 32 18 ZW 1015,6 40
15.06.2019 15:00:00 18,4 10,7 18 10 32 18 ZW 1015,3 35
15.06.2019 14:00:00 17,8 10,2 18 10 - - ZW 1015,6 35
15.06.2019 13:00:00 17,3 10,5 14 8 36 19 W 1015,1 35
15.06.2019 12:00:00 16,7 11,8 18 10 36 19 ZW 1014,5 30
15.06.2019 11:00:00 14,8 12,9 14 8 - - WZW 1014,4 30
15.06.2019 10:00:00 13,7 12,6 14 8 25 14 ZW 1014,1 30
15.06.2019 09:00:00 13,4 12,5 14 8 22 12 ZW 1013,5 11
15.06.2019 08:00:00 13,0 12,3 11 6 - - WZW 1012,5 -
15.06.2019 07:00:00 12,2 10,5 18 10 29 16 WZW 1012,4 3,2
15.06.2019 06:00:00 13,3 12,6 7 4 22 12 Z 1011,6 6
15.06.2019 05:00:00 13,1 12,3 7 4 - - ZO 1011,3 6
15.06.2019 04:00:00 13,1 12,2 7 4 18 10 ZZO 1011,5 6
15.06.2019 03:00:00 13,6 12,1 11 6 18 10 O 1011,2 21
15.06.2019 02:00:00 13,7 12,9 4 2 - - ZW 1011,8 2,5
15.06.2019 01:00:00 13,9 13,1 7 4 11 6 NNO 1011,4 1,5
15.06.2019 00:00:00 14,1 13,1 4 2 14 8 ZW 1012,7 11
14.06.2019 23:00:00 15,0 13,2 11 6 - - ZZO 1013,8 11
14.06.2019 22:00:00 15,6 13,1 4 2 14 8 Z 1012,6 15
14.06.2019 21:00:00 17,5 12,1 11 6 22 12 ZO 1012,2 40
14.06.2019 20:00:00 18,8 11,5 7 4 - - ZO 1011,9 45
14.06.2019 19:00:00 19,9 10,9 11 6 18 10 ZO 1011,9 35
14.06.2019 18:00:00 21,2 10,1 11 6 22 12 Z 1011,9 30
14.06.2019 17:00:00 21,0 10,1 7 4 - - ZO 1012,5 40
14.06.2019 16:00:00 20,7 9,7 11 6 25 14 ZZW 1013,0 35
14.06.2019 15:00:00 20,6 9,6 14 8 29 16 ZW 1013,6 35
14.06.2019 14:00:00 20,2 8,3 14 8 - - Z 1014,1 40
14.06.2019 13:00:00 19,5 9,2 11 6 29 16 Z 1014,4 30
14.06.2019 12:00:00 18,7 8,6 7 4 22 12 - 1014,6 40
14.06.2019 11:00:00 17,5 9,8 7 4 - - - 1014,2 40
14.06.2019 10:00:00 15,0 8,2 7 4 14 8 ZZO 1014,8 40
14.06.2019 09:00:00 13,6 8,6 7 4 14 8 WZW 1016,0 30
14.06.2019 08:00:00 12,3 9,0 4 2 - - ZZW 1014,7 45
14.06.2019 07:00:00 11,9 7,9 7 4 18 10 ZZO 1014,2 40
14.06.2019 06:00:00 11,4 7,7 11 6 18 10 ZO 1013,9 45
14.06.2019 05:00:00 9,7 7,2 11 6 - - OZO 1013,8 45
14.06.2019 04:00:00 10,2 6,9 7 4 14 8 OZO 1013,8 50
14.06.2019 03:00:00 10,8 6,7 11 6 18 10 OZO 1014,1 45
14.06.2019 02:00:00 10,4 6,9 7 4 - - ZO 1014,9 45
14.06.2019 01:00:00 10,2 7,7 7 4 14 8 ZZO 1015,3 45
14.06.2019 00:00:00 11,5 8,4 7 4 18 10 ZZO 1014,9 45
13.06.2019 23:00:00 11,9 8,7 11 6 - - ZO 1014,5 45
13.06.2019 22:00:00 12,5 9,2 11 6 22 12 Z 1014,0 35
13.06.2019 21:00:00 13,8 7,6 11 6 32 18 ZZW 1013,1 45
13.06.2019 20:00:00 14,4 7,3 14 8 - - ZZW 1012,9 45
13.06.2019 19:00:00 15,3 7,8 18 10 47 25 ZZW 1012,4 35
13.06.2019 18:00:00 11,3 8,7 14 8 50 27 WZW 1014,2 -
13.06.2019 17:00:00 15,1 7,1 22 12 - - ZZW 1012,6 40
13.06.2019 16:00:00 14,8 7,2 25 14 43 23 ZZW 1012,9 40
13.06.2019 15:00:00 14,6 6,7 22 12 40 21 ZZW 1012,9 45
13.06.2019 14:00:00 14,0 6,9 22 12 - - ZZW 1012,9 35
13.06.2019 13:00:00 13,9 7,5 22 12 40 21 ZZW 1013,2 35
13.06.2019 12:00:00 12,3 6,9 18 10 40 21 ZZW 1013,5 35
13.06.2019 11:00:00 12,1 7,5 22 12 - - ZZW 1013,6 40
13.06.2019 10:00:00 10,6 8,1 14 8 32 18 ZZW 1013,8 30
13.06.2019 09:00:00 9,1 8,1 14 8 32 18 Z 1014,1 21
13.06.2019 08:00:00 8,8 7,7 11 6 - - Z 1013,8 30
13.06.2019 07:00:00 8,1 7,0 14 8 32 18 Z 1013,7 25
13.06.2019 06:00:00 7,7 6,9 14 8 29 16 Z 1013,2 30
13.06.2019 05:00:00 8,4 7,4 14 8 - - Z 1012,7 40
13.06.2019 04:00:00 8,2 7,3 14 8 25 14 Z 1012,6 40
13.06.2019 03:00:00 8,1 7,0 11 6 25 14 Z 1012,7 50
13.06.2019 02:00:00 8,5 7,2 14 8 - - Z 1012,7 45
13.06.2019 01:00:00 8,9 7,3 14 8 25 14 Z 1012,4 50

tt = temperatuur
td = dauwpunt
ff = windsnelheid
fx = windstoten
dd = windrichting
ppp = luchtdruk
vv = zicht

Weerstations in de omgeving